Time,TemperatureF,DewpointF,PressureIn,WindDirection,WindDirectionDegrees,WindSpeedMPH,WindSpeedGustMPH,Humidity,HourlyPrecipIn,Conditions,Clouds,dailyrainin,SoftwareType,DateUTC
2013-07-15 00:00:00,80.3,75.4,30.21,ENE,78,3.0,11.0,85,0.00,,---,0.06,VWS V14.01,2013-07-15 04:00:00,
2013-07-15 00:01:00,80.2,75.6,30.21,ESE,109,4.0,11.0,86,0.00,,---,0.06,VWS V14.01,2013-07-15 04:01:00,
2013-07-15 00:02:00,80.2,75.6,30.21,ESE,109,0.0,11.0,86,0.00,,---,0.06,VWS V14.01,2013-07-15 04:02:00,
2013-07-15 00:07:00,80.2,75.6,30.21,East,88,4.0,11.0,86,0.00,,---,0.00,VWS V14.01,2013-07-15 04:07:00,
2013-07-15 00:12:00,80.3,75.7,30.21,East,98,6.0,11.0,86,0.00,,---,0.00,VWS V14.01,2013-07-15 04:12:00,
2013-07-15 00:17:00,80.3,75.7,30.21,East,81,4.0,11.0,86,0.00,,---,0.00,VWS V14.01,2013-07-15 04:17:00,
2013-07-15 00:22:00,80.3,75.7,30.21,ENE,75,3.0,11.0,86,0.00,,---,0.00,VWS V14.01,2013-07-15 04:22:00,
2013-07-15 00:27:00,80.2,75.6,30.21,ESE,109,2.0,11.0,86,0.00,,---,0.00,VWS V14.01,2013-07-15 04:27:00,
2013-07-15 00:32:00,80.0,75.8,30.20,ESE,107,2.0,11.0,87,0.00,,---,0.00,VWS V14.01,2013-07-15 04:32:00,
2013-07-15 00:37:00,79.9,75.7,30.21,East,100,4.0,11.0,87,0.00,,---,0.00,VWS V14.01,2013-07-15 04:37:00,
2013-07-15 00:42:00,79.8,75.9,30.21,ESE,103,5.0,11.0,88,0.00,,---,0.00,VWS V14.01,2013-07-15 04:42:00,
2013-07-15 00:47:00,79.8,75.9,30.21,East,101,4.0,11.0,88,0.00,,---,0.00,VWS V14.01,2013-07-15 04:47:00,
2013-07-15 00:52:00,79.9,76.0,30.21,East,101,2.0,11.0,88,0.00,,---,0.00,VWS V14.01,2013-07-15 04:52:00,
2013-07-15 00:57:00,79.9,76.0,30.21,East,100,1.0,11.0,88,0.00,,---,0.00,VWS V14.01,2013-07-15 04:57:00,
2013-07-15 01:00:00,80.2,75.6,30.21,ESE,109,0.0,11.0,86,0.00,,---,0.06,VWS V14.01,2013-07-15 05:00:00,
2013-07-15 01:02:00,79.9,76.0,30.20,East,80,2.0,2.0,88,0.00,,---,0.00,VWS V14.01,2013-07-15 05:02:00,
2013-07-15 01:07:00,79.9,76.0,30.21,ESE,106,4.0,6.0,88,0.00,,---,0.00,VWS V14.01,2013-07-15 05:07:00,
2013-07-15 01:12:00,79.9,76.0,30.21,ESE,107,5.0,6.0,88,0.00,,---,0.00,VWS V14.01,2013-07-15 05:12:00,
2013-07-15 01:17:00,79.9,76.0,30.21,East,97,2.0,8.0,88,0.00,,---,0.00,VWS V14.01,2013-07-15 05:17:00,
2013-07-15 01:22:00,79.9,75.7,30.20,East,100,2.0,9.0,87,0.00,,---,0.00,VWS V14.01,2013-07-15 05:22:00,
2013-07-15 01:27:00,79.9,75.7,30.21,East,93,6.0,9.0,87,0.00,,---,0.00,VWS V14.01,2013-07-15 05:27:00,
2013-07-15 01:32:00,80.0,75.8,30.21,East,94,5.0,9.0,87,0.00,,---,0.00,VWS V14.01,2013-07-15 05:32:00,
2013-07-15 01:37:00,80.0,75.8,30.21,East,101,2.0,9.0,87,0.00,,---,0.00,VWS V14.01,2013-07-15 05:37:00,
2013-07-15 01:42:00,80.1,75.9,30.20,East,95,4.0,9.0,87,0.00,,---,0.00,VWS V14.01,2013-07-15 05:42:00,
2013-07-15 01:47:00,80.1,75.9,30.20,East,84,5.0,9.0,87,0.00,,---,0.00,VWS V14.01,2013-07-15 05:47:00,
2013-07-15 01:52:00,80.1,75.9,30.20,East,86,3.0,9.0,87,0.00,,---,0.00,VWS V14.01,2013-07-15 05:52:00,
2013-07-15 01:57:00,80.1,75.9,30.20,East,88,2.0,9.0,87,0.00,,---,0.00,VWS V14.01,2013-07-15 05:57:00,
2013-07-15 02:00:00,79.9,76.0,30.21,East,80,1.0,11.0,88,0.00,,---,0.00,VWS V14.01,2013-07-15 06:00:00,
2013-07-15 02:02:00,80.1,75.9,30.20,East,91,6.0,9.0,87,0.00,,---,0.00,VWS V14.01,2013-07-15 06:02:00,
2013-07-15 02:07:00,80.0,75.8,30.20,East,101,4.0,8.0,87,0.00,,---,0.00,VWS V14.01,2013-07-15 06:07:00,
2013-07-15 02:10:00,80.0,75.8,30.20,East,99,2.0,8.0,87,0.00,,---,0.00,VWS V14.01,2013-07-15 06:10:00,
2013-07-15 02:15:00,80.0,75.8,30.20,ESE,111,4.0,8.0,87,0.00,,---,0.00,VWS V14.01,2013-07-15 06:15:00,
2013-07-15 02:20:00,79.9,75.7,30.20,ESE,110,4.0,8.0,87,0.00,,---,0.00,VWS V14.01,2013-07-15 06:20:00,
2013-07-15 02:25:00,79.8,75.6,30.20,ESE,107,4.0,11.0,87,0.00,,---,0.00,VWS V14.01,2013-07-15 06:25:00,
2013-07-15 02:30:00,79.8,75.2,30.20,ESE,105,5.0,11.0,86,0.00,,---,0.00,VWS V14.01,2013-07-15 06:30:00,
2013-07-15 02:35:00,79.8,75.2,30.20,East,79,4.0,11.0,86,0.00,,---,0.00,VWS V14.01,2013-07-15 06:35:00,
2013-07-15 02:40:00,79.9,75.3,30.20,East,92,5.0,11.0,86,0.00,,---,0.00,VWS V14.01,2013-07-15 06:40:00,
2013-07-15 02:45:00,79.9,75.3,30.20,East,80,6.0,11.0,86,0.00,,---,0.00,VWS V14.01,2013-07-15 06:45:00,
2013-07-15 02:50:00,80.0,75.4,30.20,East,93,8.0,11.0,86,0.00,,---,0.00,VWS V14.01,2013-07-15 06:50:00,
2013-07-15 02:55:00,80.0,75.8,30.19,East,93,4.0,11.0,87,0.00,,---,0.00,VWS V14.01,2013-07-15 06:55:00,
2013-07-15 03:00:00,80.0,75.8,30.19,East,85,0.0,11.0,87,0.00,,---,0.00,VWS V14.01,2013-07-15 07:00:00,
2013-07-15 03:05:00,80.0,75.8,30.19,East,98,4.0,7.0,87,0.00,,---,0.00,VWS V14.01,2013-07-15 07:05:00,
2013-07-15 03:10:00,80.0,75.8,30.19,East,91,4.0,11.0,87,0.00,,---,0.00,VWS V14.01,2013-07-15 07:10:00,
2013-07-15 03:15:00,80.0,75.8,30.19,ESE,109,4.0,11.0,87,0.00,,---,0.00,VWS V14.01,2013-07-15 07:15:00,
2013-07-15 03:20:00,80.0,75.8,30.19,East,92,0.0,11.0,87,0.00,,---,0.00,VWS V14.01,2013-07-15 07:20:00,
2013-07-15 03:25:00,80.0,75.8,30.19,ESE,113,5.0,11.0,87,0.00,,---,0.00,VWS V14.01,2013-07-15 07:25:00,
2013-07-15 03:30:00,80.0,75.8,30.19,East,88,4.0,11.0,87,0.00,,---,0.00,VWS V14.01,2013-07-15 07:30:00,
2013-07-15 03:35:00,79.9,75.7,30.19,East,92,2.0,11.0,87,0.00,,---,0.00,VWS V14.01,2013-07-15 07:35:00,
2013-07-15 03:40:00,79.9,75.7,30.18,East,90,5.0,11.0,87,0.00,,---,0.00,VWS V14.01,2013-07-15 07:40:00,
2013-07-15 03:45:00,79.6,75.4,30.19,East,86,2.0,11.0,87,0.00,,---,0.00,VWS V14.01,2013-07-15 07:45:00,
2013-07-15 03:50:00,79.4,75.5,30.18,East,86,0.0,11.0,88,0.00,,---,0.00,VWS V14.01,2013-07-15 07:50:00,
2013-07-15 03:55:00,79.2,75.3,30.18,East,86,2.0,11.0,88,0.00,,---,0.00,VWS V14.01,2013-07-15 07:55:00,
2013-07-15 04:00:00,79.0,75.5,30.18,East,86,1.0,11.0,89,0.00,,---,0.00,VWS V14.01,2013-07-15 08:00:00,
2013-07-15 04:05:00,78.8,75.3,30.18,East,86,4.0,5.0,89,0.00,,---,0.00,VWS V14.01,2013-07-15 08:05:00,
2013-07-15 04:10:00,78.7,75.5,30.19,East,86,0.0,5.0,90,0.00,,---,0.00,VWS V14.01,2013-07-15 08:10:00,
2013-07-15 04:15:00,78.5,75.3,30.19,East,86,0.0,5.0,90,0.00,,---,0.00,VWS V14.01,2013-07-15 08:15:00,
2013-07-15 04:20:00,78.5,75.3,30.19,East,86,0.0,5.0,90,0.00,,---,0.00,VWS V14.01,2013-07-15 08:20:00,
2013-07-15 04:25:00,78.5,75.3,30.19,East,86,2.0,5.0,90,0.00,,---,0.00,VWS V14.01,2013-07-15 08:25:00,
2013-07-15 04:30:00,78.5,75.3,30.19,East,86,1.0,5.0,90,0.00,,---,0.00,VWS V14.01,2013-07-15 08:30:00,
2013-07-15 04:35:00,78.4,75.6,30.19,East,86,2.0,5.0,91,0.00,,---,0.00,VWS V14.01,2013-07-15 08:35:00,
2013-07-15 04:40:00,78.3,75.5,30.19,East,86,0.0,5.0,91,0.00,,---,0.00,VWS V14.01,2013-07-15 08:40:00,
2013-07-15 04:45:00,78.2,75.4,30.19,East,86,0.0,5.0,91,0.00,,---,0.00,VWS V14.01,2013-07-15 08:45:00,
2013-07-15 04:50:00,78.3,75.5,30.19,East,86,0.0,5.0,91,0.00,,---,0.00,VWS V14.01,2013-07-15 08:50:00,
2013-07-15 04:55:00,78.2,75.4,30.19,East,86,0.0,5.0,91,0.00,,---,0.00,VWS V14.01,2013-07-15 08:55:00,
2013-07-15 05:00:00,78.2,75.7,30.19,East,86,4.0,5.0,92,0.00,,---,0.00,VWS V14.01,2013-07-15 09:00:00,
2013-07-15 05:02:00,78.2,75.7,30.19,East,86,0.0,5.0,92,0.00,,---,0.00,VWS V14.01,2013-07-15 09:02:00,
2013-07-15 05:07:00,78.2,75.7,30.19,East,86,0.0,3.0,92,0.00,,---,0.00,VWS V14.01,2013-07-15 09:07:00,
2013-07-15 05:12:00,78.2,75.7,30.19,East,86,0.0,4.0,92,0.00,,---,0.00,VWS V14.01,2013-07-15 09:12:00,
2013-07-15 05:17:00,78.2,75.7,30.19,East,86,0.0,4.0,92,0.00,,---,0.00,VWS V14.01,2013-07-15 09:17:00,
2013-07-15 05:22:00,78.2,75.7,30.20,East,86,0.0,4.0,92,0.00,,---,0.00,VWS V14.01,2013-07-15 09:22:00,
2013-07-15 05:27:00,78.1,75.6,30.20,East,86,0.0,4.0,92,0.00,,---,0.00,VWS V14.01,2013-07-15 09:27:00,
2013-07-15 05:32:00,78.1,75.6,30.20,East,86,0.0,4.0,92,0.00,,---,0.00,VWS V14.01,2013-07-15 09:32:00,
2013-07-15 05:37:00,78.2,75.7,30.20,East,86,2.0,4.0,92,0.00,,---,0.00,VWS V14.01,2013-07-15 09:37:00,
2013-07-15 05:42:00,78.3,75.5,30.20,East,86,2.0,4.0,91,0.00,,---,0.00,VWS V14.01,2013-07-15 09:42:00,
2013-07-15 05:47:00,78.5,75.7,30.20,East,90,1.0,5.0,91,0.00,,---,0.00,VWS V14.01,2013-07-15 09:47:00,
2013-07-15 05:52:00,78.7,75.5,30.20,East,90,1.0,5.0,90,0.00,,---,0.00,VWS V14.01,2013-07-15 09:52:00,
2013-07-15 05:57:00,78.9,75.7,30.20,East,90,4.0,5.0,90,0.00,,---,0.00,VWS V14.01,2013-07-15 09:57:00,
2013-07-15 06:00:00,78.2,75.7,30.19,East,86,0.0,5.0,92,0.00,,---,0.00,VWS V14.01,2013-07-15 10:00:00,
2013-07-15 06:02:00,79.0,75.5,30.21,East,86,7.0,7.0,89,0.00,,---,0.00,VWS V14.01,2013-07-15 10:02:00,
2013-07-15 06:07:00,79.1,75.6,30.21,East,86,0.0,6.0,89,0.00,,---,0.00,VWS V14.01,2013-07-15 10:07:00,
2013-07-15 06:12:00,79.2,75.7,30.21,East,86,5.0,6.0,89,0.00,,---,0.00,VWS V14.01,2013-07-15 10:12:00,
2013-07-15 06:17:00,79.4,75.9,30.21,ESE,102,1.0,6.0,89,0.00,,---,0.00,VWS V14.01,2013-07-15 10:17:00,
2013-07-15 06:22:00,79.3,75.8,30.21,East,101,0.0,6.0,89,0.00,,---,0.00,VWS V14.01,2013-07-15 10:22:00,
2013-07-15 06:27:00,79.0,75.5,30.21,East,101,4.0,6.0,89,0.00,,---,0.00,VWS V14.01,2013-07-15 10:27:00,
2013-07-15 06:32:00,78.6,75.4,30.21,East,101,2.0,6.0,90,0.00,,---,0.00,VWS V14.01,2013-07-15 10:32:00,
2013-07-15 06:37:00,78.3,75.1,30.21,East,101,2.0,6.0,90,0.00,,---,0.00,VWS V14.01,2013-07-15 10:37:00,
2013-07-15 06:42:00,78.0,75.2,30.21,East,101,0.0,6.0,91,0.00,,---,0.00,VWS V14.01,2013-07-15 10:42:00,
2013-07-15 06:47:00,77.8,75.0,30.21,East,101,0.0,6.0,91,0.00,,---,0.00,VWS V14.01,2013-07-15 10:47:00,
2013-07-15 06:52:00,77.8,75.3,30.21,East,101,5.0,6.0,92,0.00,,---,0.00,VWS V14.01,2013-07-15 10:52:00,
2013-07-15 06:57:00,77.8,75.3,30.21,East,101,4.0,6.0,92,0.00,,---,0.00,VWS V14.01,2013-07-15 10:57:00,
2013-07-15 07:00:00,79.0,75.5,30.21,East,86,7.0,7.0,89,0.00,,---,0.00,VWS V14.01,2013-07-15 11:00:00,
2013-07-15 07:02:00,77.6,75.1,30.22,East,85,0.0,6.0,92,0.00,,---,0.00,VWS V14.01,2013-07-15 11:02:00,
2013-07-15 07:07:00,77.6,75.1,30.22,East,85,0.0,4.0,92,0.00,,---,0.00,VWS V14.01,2013-07-15 11:07:00,
2013-07-15 07:12:00,77.6,75.1,30.22,ENE,72,2.0,5.0,92,0.00,,---,0.00,VWS V14.01,2013-07-15 11:12:00,
2013-07-15 07:17:00,77.5,75.0,30.22,ENE,59,5.0,6.0,92,0.00,,---,0.00,VWS V14.01,2013-07-15 11:17:00,
2013-07-15 07:22:00,77.5,75.0,30.22,ENE,58,5.0,6.0,92,0.00,,---,0.00,VWS V14.01,2013-07-15 11:22:00,
2013-07-15 07:27:00,77.6,75.4,30.21,ENE,58,4.0,6.0,93,0.00,,---,0.00,VWS V14.01,2013-07-15 11:27:00,
2013-07-15 07:32:00,77.7,75.5,30.22,ENE,58,3.0,6.0,93,0.00,,---,0.00,VWS V14.01,2013-07-15 11:32:00,
2013-07-15 07:37:00,77.9,75.4,30.22,NE,50,0.0,6.0,92,0.00,,---,0.00,VWS V14.01,2013-07-15 11:37:00,
2013-07-15 07:42:00,78.1,75.6,30.22,NE,50,3.0,6.0,92,0.00,,---,0.00,VWS V14.01,2013-07-15 11:42:00,
2013-07-15 07:47:00,78.2,75.7,30.22,NE,53,3.0,6.0,92,0.00,,---,0.00,VWS V14.01,2013-07-15 11:47:00,
2013-07-15 07:52:00,78.4,75.9,30.22,NE,53,0.0,6.0,92,0.00,,---,0.00,VWS V14.01,2013-07-15 11:52:00,
2013-07-15 07:57:00,78.6,76.1,30.22,NE,53,4.0,6.0,92,0.00,,---,0.00,VWS V14.01,2013-07-15 11:57:00,
2013-07-15 08:00:00,77.6,75.1,30.22,East,85,0.0,6.0,92,0.00,,---,0.00,VWS V14.01,2013-07-15 12:00:00,
2013-07-15 08:02:00,78.7,75.9,30.22,NE,51,5.0,5.0,91,0.00,,---,0.00,VWS V14.01,2013-07-15 12:02:00,
2013-07-15 08:07:00,78.8,75.9,30.22,NNE,27,3.0,7.0,91,0.00,,---,0.00,VWS V14.01,2013-07-15 12:07:00,
2013-07-15 08:12:00,79.0,76.2,30.22,NE,40,4.0,7.0,91,0.00,,---,0.00,VWS V14.01,2013-07-15 12:12:00,
2013-07-15 08:17:00,79.0,76.2,30.22,North,355,6.0,7.0,91,0.00,,---,0.00,VWS V14.01,2013-07-15 12:17:00,
2013-07-15 08:22:00,79.3,76.4,30.22,NE,37,4.0,8.0,91,0.00,,---,0.00,VWS V14.01,2013-07-15 12:22:00,
2013-07-15 08:27:00,79.6,76.4,30.22,NE,51,3.0,8.0,90,0.00,,---,0.00,VWS V14.01,2013-07-15 12:27:00,
2013-07-15 08:32:00,80.0,76.8,30.22,ENE,67,2.0,8.0,90,0.00,,---,0.00,VWS V14.01,2013-07-15 12:32:00,
2013-07-15 08:37:00,80.1,76.6,30.23,NE,50,3.0,8.0,89,0.00,,---,0.00,VWS V14.01,2013-07-15 12:37:00,
2013-07-15 08:42:00,80.2,76.7,30.23,NE,50,6.0,8.0,89,0.00,,---,0.00,VWS V14.01,2013-07-15 12:42:00,
2013-07-15 08:47:00,80.2,77.0,30.23,NE,51,4.0,8.0,90,0.00,,---,0.00,VWS V14.01,2013-07-15 12:47:00,
2013-07-15 08:52:00,80.2,76.7,30.23,ENE,78,2.0,8.0,89,0.00,,---,0.00,VWS V14.01,2013-07-15 12:52:00,
2013-07-15 08:57:00,80.6,77.1,30.23,ENE,67,2.0,8.0,89,0.00,,---,0.00,VWS V14.01,2013-07-15 12:57:00,
2013-07-15 09:00:00,78.7,75.9,30.22,NE,53,5.0,6.0,91,0.00,,---,0.00,VWS V14.01,2013-07-15 13:00:00,
2013-07-15 09:02:00,81.1,77.2,30.23,NNE,26,8.0,12.0,88,0.00,,---,0.00,VWS V14.01,2013-07-15 13:02:00,
2013-07-15 09:07:00,81.4,76.8,30.23,East,82,7.0,10.0,86,0.00,,---,0.00,VWS V14.01,2013-07-15 13:07:00,
2013-07-15 09:12:00,81.8,76.8,30.23,SE,129,2.0,12.0,85,0.00,,---,0.00,VWS V14.01,2013-07-15 13:12:00,
2013-07-15 09:17:00,82.1,76.8,30.23,SE,126,9.0,13.0,84,0.00,,---,0.00,VWS V14.01,2013-07-15 13:17:00,
2013-07-15 09:22:00,82.7,77.4,30.23,East,88,7.0,13.0,84,0.00,,---,0.00,VWS V14.01,2013-07-15 13:22:00,
2013-07-15 09:27:00,83.0,76.6,30.23,East,99,8.0,13.0,81,0.00,,---,0.00,VWS V14.01,2013-07-15 13:27:00,
2013-07-15 09:32:00,83.3,76.9,30.23,East,101,9.0,13.0,81,0.00,,---,0.00,VWS V14.01,2013-07-15 13:32:00,
2013-07-15 09:37:00,83.6,76.4,30.23,ENE,67,6.0,13.0,79,0.00,,---,0.00,VWS V14.01,2013-07-15 13:37:00,
2013-07-15 09:42:00,83.7,76.5,30.23,East,94,15.0,18.0,79,0.00,,---,0.00,VWS V14.01,2013-07-15 13:42:00,
2013-07-15 09:47:00,83.7,76.9,30.23,SE,124,4.0,18.0,80,0.00,,---,0.00,VWS V14.01,2013-07-15 13:47:00,
2013-07-15 09:52:00,83.5,76.7,30.23,SSE,147,5.0,18.0,80,0.00,,---,0.00,VWS V14.01,2013-07-15 13:52:00,
2013-07-15 09:57:00,83.4,76.6,30.23,East,100,2.0,18.0,80,0.00,,---,0.00,VWS V14.01,2013-07-15 13:57:00,
2013-07-15 10:00:00,81.1,77.2,30.23,NNE,26,8.0,12.0,88,0.00,,---,0.00,VWS V14.01,2013-07-15 14:00:00,
2013-07-15 10:02:00,83.2,77.1,30.23,East,90,2.0,6.0,82,0.00,,---,0.00,VWS V14.01,2013-07-15 14:02:00,
2013-07-15 10:07:00,83.5,76.7,30.23,East,100,6.0,13.0,80,0.00,,---,0.00,VWS V14.01,2013-07-15 14:07:00,
2013-07-15 10:12:00,83.9,77.1,30.22,ENE,76,5.0,13.0,80,0.00,,---,0.00,VWS V14.01,2013-07-15 14:12:00,
2013-07-15 10:17:00,84.3,77.1,30.23,SE,140,6.0,13.0,79,0.00,,---,0.00,VWS V14.01,2013-07-15 14:17:00,
2013-07-15 10:22:00,83.9,77.1,30.23,ESE,112,4.0,13.0,80,0.00,,---,0.00,VWS V14.01,2013-07-15 14:22:00,
2013-07-15 10:27:00,83.7,76.9,30.23,East,87,4.0,13.0,80,0.00,,---,0.00,VWS V14.01,2013-07-15 14:27:00,
2013-07-15 10:32:00,83.4,76.2,30.23,ENE,71,7.0,13.0,79,0.00,,---,0.00,VWS V14.01,2013-07-15 14:32:00,
2013-07-15 10:37:00,83.3,76.1,30.23,ENE,65,5.0,17.0,79,0.00,,---,0.00,VWS V14.01,2013-07-15 14:37:00,
2013-07-15 10:42:00,83.8,76.2,30.23,East,90,15.0,17.0,78,0.00,,---,0.00,VWS V14.01,2013-07-15 14:42:00,
2013-07-15 10:47:00,83.9,76.3,30.23,East,86,5.0,17.0,78,0.00,,---,0.00,VWS V14.01,2013-07-15 14:47:00,
2013-07-15 10:52:00,84.1,76.5,30.23,ESE,106,6.0,17.0,78,0.00,,---,0.00,VWS V14.01,2013-07-15 14:52:00,
2013-07-15 10:57:00,84.1,76.5,30.24,East,85,3.0,17.0,78,0.00,,---,0.00,VWS V14.01,2013-07-15 14:57:00,
2013-07-15 11:00:00,83.2,76.8,30.23,ENE,63,6.0,18.0,81,0.00,,---,0.00,VWS V14.01,2013-07-15 15:00:00,
2013-07-15 11:02:00,84.5,76.9,30.24,ESE,122,7.0,9.0,78,0.00,,---,0.00,VWS V14.01,2013-07-15 15:02:00,
2013-07-15 11:30:00,85.3,76.9,30.24,East,84,6.0,14.0,76,0.00,,---,0.00,VWS V14.01,2013-07-15 15:30:00,
2013-07-15 11:35:00,85.1,76.7,30.24,ESE,109,4.0,14.0,76,0.00,,---,0.00,VWS V14.01,2013-07-15 15:35:00,
2013-07-15 11:40:00,85.1,76.7,30.24,SE,136,2.0,14.0,76,0.00,,---,0.00,VWS V14.01,2013-07-15 15:40:00,
2013-07-15 11:45:00,85.1,75.9,30.24,ESE,104,8.0,14.0,74,0.00,,---,0.00,VWS V14.01,2013-07-15 15:45:00,
2013-07-15 11:50:00,84.5,76.1,30.25,East,92,8.0,15.0,76,0.00,,---,0.00,VWS V14.01,2013-07-15 15:50:00,
2013-07-15 11:55:00,84.1,76.1,30.24,ESE,106,6.0,15.0,77,0.00,,---,0.00,VWS V14.01,2013-07-15 15:55:00,
2013-07-15 12:00:00,84.0,76.0,30.25,East,98,6.0,15.0,77,0.00,,---,0.00,VWS V14.01,2013-07-15 16:00:00,
2013-07-15 12:05:00,84.3,75.9,30.24,SE,138,9.0,12.0,76,0.00,,---,0.00,VWS V14.01,2013-07-15 16:05:00,
2013-07-15 12:10:00,84.2,76.2,30.24,ESE,116,4.0,12.0,77,0.00,,---,0.00,VWS V14.01,2013-07-15 16:10:00,
2013-07-15 12:15:00,84.5,76.1,30.24,ESE,118,6.0,12.0,76,0.00,,---,0.00,VWS V14.01,2013-07-15 16:15:00,
2013-07-15 12:20:00,84.8,76.8,30.24,East,84,5.0,16.0,77,0.00,,---,0.00,VWS V14.01,2013-07-15 16:20:00,
2013-07-15 12:25:00,85.2,76.8,30.24,ENE,72,4.0,16.0,76,0.00,,---,0.00,VWS V14.01,2013-07-15 16:25:00,
2013-07-15 12:30:00,85.2,76.8,30.24,ESE,103,5.0,16.0,76,0.00,,---,0.00,VWS V14.01,2013-07-15 16:30:00,
2013-07-15 12:35:00,85.2,76.8,30.24,East,80,10.0,16.0,76,0.00,,---,0.00,VWS V14.01,2013-07-15 16:35:00,
2013-07-15 12:40:00,84.8,76.0,30.24,SE,142,10.0,16.0,75,0.00,,---,0.00,VWS V14.01,2013-07-15 16:40:00,
2013-07-15 12:45:00,84.4,76.0,30.24,ESE,103,4.0,16.0,76,0.00,,---,0.00,VWS V14.01,2013-07-15 16:45:00,
2013-07-15 12:50:00,84.6,76.2,30.24,ESE,105,5.0,16.0,76,0.00,,---,0.00,VWS V14.01,2013-07-15 16:50:00,
2013-07-15 12:55:00,84.6,76.6,30.25,SE,139,10.0,18.0,77,0.00,,---,0.00,VWS V14.01,2013-07-15 16:55:00,
2013-07-15 13:00:00,85.0,76.2,30.25,ESE,117,4.0,18.0,75,0.00,,---,0.00,VWS V14.01,2013-07-15 17:00:00,
2013-07-15 13:34:00,85.1,75.9,30.24,ESE,108,4.0,14.0,74,0.00,,---,0.00,VWS V14.01,2013-07-15 17:34:00,
2013-07-15 13:39:00,85.5,75.9,30.23,South,174,8.0,14.0,73,0.00,,---,0.00,VWS V14.01,2013-07-15 17:39:00,
2013-07-15 13:44:00,85.7,76.5,30.23,East,84,2.0,14.0,74,0.00,,---,0.00,VWS V14.01,2013-07-15 17:44:00,
2013-07-15 13:49:00,86.0,75.9,30.23,South,172,5.0,14.0,72,0.00,,---,0.00,VWS V14.01,2013-07-15 17:49:00,
2013-07-15 13:54:00,85.9,76.2,30.23,East,96,9.0,14.0,73,0.00,,---,0.00,VWS V14.01,2013-07-15 17:54:00,
2013-07-15 13:59:00,85.9,76.7,30.23,SE,126,2.0,14.0,74,0.00,,---,0.00,VWS V14.01,2013-07-15 17:59:00,
2013-07-15 14:00:00,85.2,76.4,30.25,SSE,148,4.0,18.0,75,0.00,,---,0.00,VWS V14.01,2013-07-15 18:00:00,
2013-07-15 14:04:00,86.0,76.3,30.23,East,84,5.0,15.0,73,0.00,,---,0.00,VWS V14.01,2013-07-15 18:04:00,
2013-07-15 14:09:00,85.9,76.7,30.23,SSE,156,7.0,15.0,74,0.00,,---,0.00,VWS V14.01,2013-07-15 18:09:00,
2013-07-15 14:14:00,85.4,76.6,30.23,SE,127,11.0,15.0,75,0.00,,---,0.00,VWS V14.01,2013-07-15 18:14:00,
2013-07-15 14:19:00,85.6,77.2,30.23,SSE,148,5.0,15.0,76,0.00,,---,0.00,VWS V14.01,2013-07-15 18:19:00,
2013-07-15 14:24:00,86.3,77.0,30.23,SSE,148,11.0,15.0,74,0.00,,---,0.00,VWS V14.01,2013-07-15 18:24:00,
2013-07-15 14:29:00,86.1,76.0,30.23,SE,134,7.0,15.0,72,0.00,,---,0.00,VWS V14.01,2013-07-15 18:29:00,
2013-07-15 14:34:00,85.7,76.5,30.23,East,92,8.0,15.0,74,0.00,,---,0.00,VWS V14.01,2013-07-15 18:34:00,
2013-07-15 14:39:00,85.3,76.5,30.23,South,176,6.0,15.0,75,0.00,,---,0.00,VWS V14.01,2013-07-15 18:39:00,
2013-07-15 14:44:00,85.5,77.1,30.23,ESE,123,7.0,15.0,76,0.00,,---,0.00,VWS V14.01,2013-07-15 18:44:00,
2013-07-15 14:49:00,85.5,76.7,30.23,East,87,3.0,15.0,75,0.00,,---,0.00,VWS V14.01,2013-07-15 18:49:00,
2013-07-15 14:54:00,85.3,76.9,30.22,SE,137,9.0,15.0,76,0.00,,---,0.00,VWS V14.01,2013-07-15 18:54:00,
2013-07-15 14:59:00,85.3,76.1,30.22,ESE,107,8.0,15.0,74,0.00,,---,0.00,VWS V14.01,2013-07-15 18:59:00,
2013-07-15 15:00:00,86.0,76.8,30.23,East,90,5.0,14.0,74,0.00,,---,0.00,VWS V14.01,2013-07-15 19:00:00,
2013-07-15 15:04:00,85.3,76.9,30.22,SE,126,7.0,11.0,76,0.00,,---,0.00,VWS V14.01,2013-07-15 19:04:00,
2013-07-15 15:09:00,85.0,76.2,30.22,SSE,168,8.0,13.0,75,0.00,,---,0.00,VWS V14.01,2013-07-15 19:09:00,
2013-07-15 15:14:00,85.2,76.4,30.22,ESE,103,4.0,13.0,75,0.00,,---,0.00,VWS V14.01,2013-07-15 19:14:00,
2013-07-15 15:19:00,85.6,77.2,30.22,SE,142,4.0,13.0,76,0.00,,---,0.00,VWS V14.01,2013-07-15 19:19:00,
2013-07-15 15:24:00,85.5,76.7,30.22,East,85,7.0,13.0,75,0.00,,---,0.00,VWS V14.01,2013-07-15 19:24:00,
2013-07-15 15:29:00,85.1,77.1,30.22,South,175,1.0,13.0,77,0.00,,---,0.00,VWS V14.01,2013-07-15 19:29:00,
2013-07-15 15:34:00,85.1,76.7,30.22,East,88,7.0,13.0,76,0.00,,---,0.00,VWS V14.01,2013-07-15 19:34:00,
2013-07-15 15:39:00,85.2,76.8,30.22,South,190,4.0,13.0,76,0.00,,---,0.00,VWS V14.01,2013-07-15 19:39:00,
2013-07-15 15:44:00,85.5,76.7,30.22,East,97,9.0,13.0,75,0.00,,---,0.00,VWS V14.01,2013-07-15 19:44:00,
2013-07-15 15:49:00,85.2,76.4,30.22,SE,143,5.0,13.0,75,0.00,,---,0.00,VWS V14.01,2013-07-15 19:49:00,
2013-07-15 15:54:00,84.9,76.1,30.22,SSE,150,7.0,14.0,75,0.00,,---,0.00,VWS V14.01,2013-07-15 19:54:00,
2013-07-15 15:59:00,84.8,76.8,30.22,SE,131,4.0,14.0,77,0.00,,---,0.00,VWS V14.01,2013-07-15 19:59:00,
2013-07-15 16:00:00,85.3,76.9,30.22,East,92,6.0,15.0,76,0.00,,---,0.00,VWS V14.01,2013-07-15 20:00:00,
2013-07-15 16:34:00,84.6,76.6,30.22,East,89,5.0,14.0,77,0.00,,---,0.00,VWS V14.01,2013-07-15 20:34:00,
2013-07-15 16:39:00,84.5,76.1,30.21,ESE,115,2.0,14.0,76,0.00,,---,0.00,VWS V14.01,2013-07-15 20:39:00,
2013-07-15 16:44:00,84.6,76.2,30.21,ESE,109,5.0,14.0,76,0.00,,---,0.00,VWS V14.01,2013-07-15 20:44:00,
2013-07-15 16:49:00,84.3,76.3,30.21,East,80,5.0,14.0,77,0.00,,---,0.00,VWS V14.01,2013-07-15 20:49:00,
2013-07-15 16:54:00,84.4,76.8,30.21,SSE,151,4.0,14.0,78,0.00,,---,0.00,VWS V14.01,2013-07-15 20:54:00,
2013-07-15 16:59:00,84.5,76.5,30.21,East,90,1.0,14.0,77,0.00,,---,0.00,VWS V14.01,2013-07-15 20:59:00,
2013-07-15 17:00:00,84.7,76.3,30.22,East,95,5.0,14.0,76,0.00,,---,0.00,VWS V14.01,2013-07-15 21:00:00,
2013-07-15 17:04:00,84.6,76.6,30.21,ESE,103,5.0,11.0,77,0.00,,---,0.00,VWS V14.01,2013-07-15 21:04:00,
2013-07-15 17:09:00,84.7,76.7,30.21,SE,138,1.0,11.0,77,0.00,,---,0.00,VWS V14.01,2013-07-15 21:09:00,
2013-07-15 17:14:00,84.9,75.3,30.21,ESE,123,4.0,11.0,73,0.00,,---,0.00,VWS V14.01,2013-07-15 21:14:00,
2013-07-15 17:19:00,85.0,76.6,30.21,NE,55,6.0,11.0,76,0.00,,---,0.00,VWS V14.01,2013-07-15 21:19:00,
2013-07-15 17:24:00,84.5,76.1,30.21,SE,140,2.0,13.0,76,0.00,,---,0.00,VWS V14.01,2013-07-15 21:24:00,
2013-07-15 17:29:00,84.4,76.4,30.21,ESE,115,8.0,13.0,77,0.00,,---,0.00,VWS V14.01,2013-07-15 21:29:00,
2013-07-15 17:34:00,84.2,76.2,30.21,East,98,8.0,13.0,77,0.00,,---,0.00,VWS V14.01,2013-07-15 21:34:00,
2013-07-15 17:39:00,84.4,76.8,30.21,ENE,78,6.0,13.0,78,0.00,,---,0.00,VWS V14.01,2013-07-15 21:39:00,
2013-07-15 17:44:00,84.3,76.3,30.21,East,96,2.0,14.0,77,0.00,,---,0.00,VWS V14.01,2013-07-15 21:44:00,
2013-07-15 17:49:00,83.8,75.8,30.20,ESE,103,6.0,14.0,77,0.00,,---,0.00,VWS V14.01,2013-07-15 21:49:00,
2013-07-15 17:54:00,84.0,76.4,30.20,SE,128,6.0,14.0,78,0.00,,---,0.00,VWS V14.01,2013-07-15 21:54:00,
2013-07-15 17:59:00,84.0,76.4,30.20,ESE,117,2.0,14.0,78,0.00,,---,0.00,VWS V14.01,2013-07-15 21:59:00,
2013-07-15 18:00:00,84.6,77.0,30.21,ESE,107,8.0,14.0,78,0.00,,---,0.00,VWS V14.01,2013-07-15 22:00:00,
2013-07-15 18:04:00,84.2,76.6,30.20,ESE,106,2.0,9.0,78,0.00,,---,0.00,VWS V14.01,2013-07-15 22:04:00,
2013-07-15 18:09:00,84.0,76.8,30.20,ENE,71,4.0,12.0,79,0.00,,---,0.00,VWS V14.01,2013-07-15 22:09:00,
2013-07-15 18:14:00,83.8,77.0,30.20,East,96,1.0,12.0,80,0.00,,---,0.00,VWS V14.01,2013-07-15 22:14:00,
2013-07-15 18:19:00,83.9,76.7,30.20,SE,130,5.0,13.0,79,0.00,,---,0.00,VWS V14.01,2013-07-15 22:19:00,
2013-07-15 18:24:00,83.9,76.7,30.20,ESE,116,2.0,13.0,79,0.00,,---,0.00,VWS V14.01,2013-07-15 22:24:00,
2013-07-15 18:29:00,84.0,76.8,30.20,SSE,163,4.0,13.0,79,0.00,,---,0.00,VWS V14.01,2013-07-15 22:29:00,
2013-07-15 18:34:00,83.9,76.7,30.20,East,90,6.0,13.0,79,0.00,,---,0.00,VWS V14.01,2013-07-15 22:34:00,
2013-07-15 18:39:00,83.8,77.0,30.20,SE,134,2.0,13.0,80,0.00,,---,0.00,VWS V14.01,2013-07-15 22:39:00,
2013-07-15 18:44:00,83.5,76.3,30.20,SE,127,5.0,13.0,79,0.00,,---,0.00,VWS V14.01,2013-07-15 22:44:00,
2013-07-15 18:49:00,83.4,76.6,30.20,SSE,149,4.0,13.0,80,0.00,,---,0.00,VWS V14.01,2013-07-15 22:49:00,
2013-07-15 18:54:00,83.4,77.0,30.20,ESE,107,1.0,13.0,81,0.00,,---,0.00,VWS V14.01,2013-07-15 22:54:00,
2013-07-15 18:59:00,83.2,76.8,30.20,East,97,9.0,13.0,81,0.00,,---,0.00,VWS V14.01,2013-07-15 22:59:00,
2013-07-15 19:34:00,82.3,76.6,30.21,ESE,119,5.0,11.0,83,0.00,,---,0.00,VWS V14.01,2013-07-15 23:34:00,
2013-07-15 19:39:00,82.2,76.5,30.21,SE,124,0.0,11.0,83,0.00,,---,0.00,VWS V14.01,2013-07-15 23:39:00,
2013-07-15 19:44:00,82.2,76.5,30.21,ESE,122,4.0,11.0,83,0.00,,---,0.00,VWS V14.01,2013-07-15 23:44:00,
2013-07-15 19:49:00,82.1,76.4,30.21,ENE,65,1.0,11.0,83,0.00,,---,0.00,VWS V14.01,2013-07-15 23:49:00,
2013-07-15 19:54:00,82.1,76.4,30.21,East,94,0.0,11.0,83,0.00,,---,0.00,VWS V14.01,2013-07-15 23:54:00,
2013-07-15 19:59:00,81.9,76.2,30.21,SE,126,2.0,11.0,83,0.00,,---,0.00,VWS V14.01,2013-07-15 23:59:00,
2013-07-15 20:00:00,83.2,76.8,30.20,East,93,9.0,13.0,81,0.00,,---,0.00,VWS V14.01,2013-07-16 00:00:00,
2013-07-15 20:30:00,80.8,75.9,30.21,ESE,113,1.0,7.0,85,0.00,,---,0.00,VWS V14.01,2013-07-16 00:30:00,
2013-07-15 20:35:00,80.6,76.0,30.21,ESE,113,0.0,7.0,86,0.00,,---,0.00,VWS V14.01,2013-07-16 00:35:00,
2013-07-15 20:40:00,80.5,75.9,30.21,ESE,113,0.0,7.0,86,0.00,,---,0.00,VWS V14.01,2013-07-16 00:40:00,
2013-07-15 20:45:00,80.4,75.8,30.21,ESE,113,0.0,7.0,86,0.00,,---,0.00,VWS V14.01,2013-07-16 00:45:00,
2013-07-15 20:50:00,80.3,75.7,30.21,ESE,113,0.0,7.0,86,0.00,,---,0.00,VWS V14.01,2013-07-16 00:50:00,
2013-07-15 20:55:00,80.1,75.9,30.21,ESE,113,0.0,7.0,87,0.00,,---,0.00,VWS V14.01,2013-07-16 00:55:00,
2013-07-15 21:00:00,80.0,75.8,30.22,ESE,113,0.0,7.0,87,0.00,,---,0.00,VWS V14.01,2013-07-16 01:00:00,
2013-07-15 21:05:00,79.9,75.7,30.22,ESE,113,0.0,0.0,87,0.00,,---,0.00,VWS V14.01,2013-07-16 01:05:00,
2013-07-15 21:10:00,79.9,76.0,30.22,ESE,113,1.0,2.0,88,0.00,,---,0.00,VWS V14.01,2013-07-16 01:10:00,
2013-07-15 21:15:00,79.9,76.0,30.22,ESE,113,2.0,2.0,88,0.00,,---,0.00,VWS V14.01,2013-07-16 01:15:00,
2013-07-15 21:20:00,79.8,75.9,30.22,ESE,113,2.0,5.0,88,0.00,,---,0.00,VWS V14.01,2013-07-16 01:20:00,
2013-07-15 21:25:00,79.9,76.0,30.22,ESE,113,0.0,5.0,88,0.00,,---,0.00,VWS V14.01,2013-07-16 01:25:00,
2013-07-15 21:30:00,79.9,76.0,30.22,ESE,113,0.0,5.0,88,0.00,,---,0.00,VWS V14.01,2013-07-16 01:30:00,
2013-07-15 21:35:00,79.8,75.9,30.22,ESE,113,4.0,5.0,88,0.00,,---,0.00,VWS V14.01,2013-07-16 01:35:00,
2013-07-15 21:40:00,79.8,75.9,30.22,ESE,113,1.0,5.0,88,0.00,,---,0.00,VWS V14.01,2013-07-16 01:40:00,
2013-07-15 21:45:00,79.7,75.8,30.22,ESE,113,4.0,5.0,88,0.00,,---,0.00,VWS V14.01,2013-07-16 01:45:00,
2013-07-15 21:50:00,79.6,75.7,30.22,ESE,113,4.0,5.0,88,0.00,,---,0.00,VWS V14.01,2013-07-16 01:50:00,
2013-07-15 21:55:00,79.5,75.6,30.23,ESE,113,0.0,5.0,88,0.00,,---,0.00,VWS V14.01,2013-07-16 01:55:00,
2013-07-15 22:00:00,79.5,75.6,30.22,ESE,113,2.0,5.0,88,0.00,,---,0.00,VWS V14.01,2013-07-16 02:00:00,
2013-07-15 22:05:00,79.5,75.6,30.22,ESE,113,4.0,4.0,88,0.00,,---,0.00,VWS V14.01,2013-07-16 02:05:00,
2013-07-15 22:10:00,79.6,75.7,30.22,ESE,113,0.0,5.0,88,0.00,,---,0.00,VWS V14.01,2013-07-16 02:10:00,
2013-07-15 22:15:00,79.6,75.7,30.23,ESE,113,5.0,6.0,88,0.00,,---,0.00,VWS V14.01,2013-07-16 02:15:00,
2013-07-15 22:20:00,79.6,75.7,30.23,ESE,113,1.0,6.0,88,0.00,,---,0.00,VWS V14.01,2013-07-16 02:20:00,
2013-07-15 22:25:00,79.5,75.6,30.22,ESE,113,1.0,6.0,88,0.00,,---,0.00,VWS V14.01,2013-07-16 02:25:00,
2013-07-15 22:30:00,79.5,75.6,30.23,ESE,113,0.0,6.0,88,0.00,,---,0.00,VWS V14.01,2013-07-16 02:30:00,
2013-07-15 22:35:00,79.5,75.6,30.23,ESE,113,0.0,6.0,88,0.00,,---,0.00,VWS V14.01,2013-07-16 02:35:00,
2013-07-15 22:40:00,79.5,75.6,30.23,ESE,113,0.0,6.0,88,0.00,,---,0.00,VWS V14.01,2013-07-16 02:40:00,
2013-07-15 22:45:00,79.5,75.6,30.23,ESE,113,0.0,6.0,88,0.00,,---,0.00,VWS V14.01,2013-07-16 02:45:00,
2013-07-15 22:50:00,79.5,75.6,30.23,ESE,113,0.0,6.0,88,0.00,,---,0.00,VWS V14.01,2013-07-16 02:50:00,
2013-07-15 22:55:00,79.5,75.6,30.23,ESE,113,2.0,6.0,88,0.00,,---,0.00,VWS V14.01,2013-07-16 02:55:00,
2013-07-15 23:00:00,79.5,75.6,30.23,ESE,113,0.0,6.0,88,0.00,,---,0.00,VWS V14.01,2013-07-16 03:00:00,
2013-07-15 23:05:00,79.5,75.6,30.23,ESE,113,0.0,4.0,88,0.00,,---,0.00,VWS V14.01,2013-07-16 03:05:00,
2013-07-15 23:10:00,79.5,76.0,30.23,ESE,113,0.0,4.0,89,0.00,,---,0.00,VWS V14.01,2013-07-16 03:10:00,
2013-07-15 23:15:00,79.5,76.0,30.23,ESE,113,2.0,4.0,89,0.00,,---,0.00,VWS V14.01,2013-07-16 03:15:00,
2013-07-15 23:20:00,79.5,76.0,30.23,ESE,113,0.0,4.0,89,0.00,,---,0.00,VWS V14.01,2013-07-16 03:20:00,
2013-07-15 23:25:00,79.4,75.9,30.23,ESE,113,0.0,4.0,89,0.00,,---,0.00,VWS V14.01,2013-07-16 03:25:00,
2013-07-15 23:30:00,79.3,75.8,30.23,ESE,113,0.0,4.0,89,0.00,,---,0.00,VWS V14.01,2013-07-16 03:30:00,
2013-07-15 23:35:00,79.3,75.8,30.24,ESE,113,1.0,4.0,89,0.00,,---,0.00,VWS V14.01,2013-07-16 03:35:00,
2013-07-15 23:40:00,79.3,76.1,30.23,ESE,113,0.0,4.0,90,0.00,,---,0.00,VWS V14.01,2013-07-16 03:40:00,
2013-07-15 23:45:00,79.3,75.8,30.23,ESE,113,0.0,4.0,89,0.00,,---,0.00,VWS V14.01,2013-07-16 03:45:00,
2013-07-15 23:50:00,79.2,75.7,30.23,ESE,113,0.0,4.0,89,0.00,,---,0.00,VWS V14.01,2013-07-16 03:50:00,
2013-07-15 23:55:00,79.0,75.5,30.23,ESE,113,0.0,4.0,89,0.00,,---,0.00,VWS V14.01,2013-07-16 03:55:00,